User: anonymous
Location: ActonStarParty
(42.4766°N, 71.4538°W)
Time: 11:54:53
(UTC-04:00)
Language:

ITAMSAT 1 - Orbit

View from above orbital plane
View from above orbital plane
View from above satellite
View from above satellite

Ground track
Ground track

The orbit data is extracted from the following two-line orbital elements,

1 22826U 93061D   14212.81458200  .00000090  00000-0  52140-4 0  4830
2 22826 098.6585 158.8756 0009630 153.8322 206.3348 14.30033899 87297
Epoch (UTC): 31 July 2014 19:32:59
Eccentricity: 0.0009630
inclination: 98.6585°
perigee height: 785 km
apogee height: 798 km
right ascension of ascending node: 158.8756°
argument of perigee: 153.8322°
revolutions per day: 14.30033899
mean anomaly at epoch: 206.3348°
orbit number at epoch: 8729

The dashed part of the orbit path shows where the satellite is in the earth's shadow,  

DLR